Location: Agendoh
(31.0664°N, 8.9343°W)
Time: 03:52:56
(UTC+00:00)

Lacrosse 5 - Pass Details

Date: 04 July 2022
Orbit: 714 x 724 km, 57.0° (Epoch: 09 March)

Event Time Altitude Azimuth Distance (km) Brightness Sun altitude
Rises 22:05:41 0° 319° (NW) 3,136 6.6 -24.6°
Reaches altitude 10° 22:08:04 10° 317° (NW) 2,212 5.4 -24.9°
Maximum altitude 22:13:08 69° 235° (SW) 769 1.9 -25.6°
Enters shadow 22:13:15 69° 225° (SW) 770 1.9 -25.6°
